Location: Trondheim
(63.4170°N, 10.4170°E)
Time: 18:12:30
(UTC+02:00)

Iridium 82 - Visible Passes

Search period start: 22 September 2014 00:00
Search period end: 02 October 2014 00:00
Orbit: 776 x 779 km, 86.4° (Epoch: 21 September)

Date Brightness Start Highest point End Pass type
(mag) Time Alt. Az. Time Alt. Az. Time Alt. Az.
22 Sep 8.8 04:23:55 10° E 04:26:07 13° ENE 04:28:19 10° NE visible
22 Sep 7.0 06:00:43 10° SSE 06:05:37 43° E 06:10:33 10° NNE visible
23 Sep 7.7 05:27:48 10° SE 05:32:18 31° ENE 05:36:50 10° NNE visible
24 Sep 8.2 04:55:11 10° ESE 04:59:05 22° ENE 05:03:00 10° NNE visible
24 Sep 8.7 20:14:08 10° NNW 20:16:49 14° WNW 20:19:31 10° W visible
25 Sep 8.6 04:22:57 10° E 04:25:57 16° ENE 04:28:58 10° NNE visible
25 Sep 6.5 06:00:36 10° SSE 06:05:40 54° E 06:10:45 10° NNE visible
26 Sep 8.9 03:51:31 10° ENE 03:52:55 11° ENE 03:54:19 10° NE visible
26 Sep 7.2 05:27:31 10° SSE 05:32:17 38° E 05:37:05 10° NNE visible
27 Sep 7.8 04:54:43 10° SE 04:59:00 27° ENE 05:03:19 10° NNE visible
27 Sep 8.9 20:14:57 10° NW 20:16:39 12° WNW 20:18:20 10° WNW visible
28 Sep 8.3 04:22:14 10° ESE 04:25:49 19° ENE 04:29:25 10° NNE visible
28 Sep 6.0 06:00:34 10° S 06:05:44 68° E 06:10:56 10° N visible
29 Sep 8.6 03:50:13 10° E 03:52:44 14° ENE 03:55:15 10° NNE visible
29 Sep 6.7 05:27:20 10° SSE 05:32:18 47° E 05:37:18 10° NNE visible
30 Sep 7.4 04:54:22 10° SE 04:58:58 33° ENE 05:03:35 10° NNE visible
30 Sep 5.5 06:34:14 10° SSW 06:39:26 68° WNW 06:44:40 10° N visible
01 Oct 7.9 04:21:40 10° ESE 04:25:43 23° ENE 04:29:47 10° NNE visible
01 Oct 5.6 06:00:37 10° S 06:05:50 84° E 06:11:06 10° N visible
01 Oct 8.6 19:41:02 10° NW 19:43:26 13° WNW 19:45:50 10° W visible
